{"data":{"norad_id":52581,"intl_designator":"2022-051AX","name":"STARLINK-3915","alt_names":[],"object_type":"PAYLOAD","status":"ACTIVE","operator":null,"country":"US","launch_date":"2022-05-13","launch_site_code":"AFWTR","launch_vehicle":null,"mission":null,"orbit_class":"UNKNOWN","rcs_meters":null,"size_class":null,"mass_kg":null,"dimensions":null,"purposes":["comms"],"wikipedia_slug":null,"has_3d_model":false,"image_url":null,"decayed_at":null,"tle_current":{"epoch":"2026-09-19T21:15:48.500064Z","epoch_age_seconds":116411,"freshness":"FRESH","line1":"1 52581U 22051AX  26262.88597801 -.00058076  00000+0 -17052-2 0  9999","line2":"2 52581  53.1605 320.3318 0001227 101.9430 258.1710 15.34688080240994","mean_motion":15.3468808,"eccentricity":0.0001227,"inclination_deg":53.1605,"raan_deg":320.3318,"arg_perigee_deg":101.943,"mean_anomaly_deg":258.171,"bstar":-0.0017052,"rev_number":24099,"period_min":93.830141692376,"perigee_km":461.00787362405,"apogee_km":462.68640573193,"semimajor_km":6839.984139678,"source":"CELESTRAK","updated_at":"2026-09-20T09:00:40.065841Z"}}}